Location: Krakow
(50.0212°N, 19.9423°E)
Time: 00:22:46
(UTC+02:00)

NOAA 18 - Pass Details

Date: 19 August 2024
Orbit: 837 x 859 km, 98.9° (Epoch: 19 September)

Event Time Altitude Azimuth Distance (km) Brightness Sun altitude
Exits shadow 22:44:25 46° 173° (S) 1,140 5.4 -22.3°
Maximum altitude 22:46:09 82° 255° (WSW) 874 5.2 -22.5°
Drops below altitude 10° 22:51:45 10° 343° (NNW) 2,506 8.7 -22.9°
Sets 22:54:08 0° 345° (NNW) 3,447 9.7 -23.1°
